Location: Amlwch
(53.4000°N, 4.3333°W)
Time: 17:54:34
(UTC+00:00)

Daily predictions for brighter satellites

Satellite Brightness Start Highest point End
(mag) Time Altitude Azimuth Time Altitude Azimuth Time Altitude Azimuth
Lacrosse 5 2.1 17:21:41 10° W 17:26:43 63° NNW 17:31:47 10° ENE
Cosmos 1300 3.5 17:24:40 10° SSE 17:28:01 30° E 17:31:23 10° NNE
Cosmos 1818 3.9 17:24:33 10° SW 17:29:58 67° NW 17:35:27 10° NE
Cosmos 2058 4.2 17:27:12 10° NNE 17:30:13 19° ENE 17:33:11 10° ESE
Cosmos 1606 Rocket 3.9 17:26:38 10° SSE 17:30:46 43° E 17:34:58 10° NNE
Cosmos 1697 Rocket 4.4 17:29:08 10° ESE 17:31:16 12° E 17:33:25 10° ENE
Cosmos 1825 4.0 17:29:44 10° NNE 17:31:27 13° ENE 17:33:08 10° E
CZ-4 R/B 2.6 17:28:46 10° ESE 17:31:40 20° ENE 17:34:33 10° NNE
SMAP 3.1 17:28:02 10° SSE 17:32:41 90° SW 17:37:24 10° NNW
ERBS 2.9 17:30:49 10° W 17:34:04 46° N 17:37:20 10° ENE
Cosmos 1356 Rocket 3.9 17:32:05 10° SSW 17:36:21 68° WNW 17:40:40 10° N
Cosmos 1703 4.4 17:32:34 10° NNW 17:36:24 50° W 17:40:14 10° S
ERS-2 2.6 17:33:50 10° NNE 17:37:17 38° E 17:40:42 10° S
FALCON 9 DEB 3.1 17:33:58 10° W 17:37:25 86° S 17:40:51 10° E
Cosmos 1110 Rocket 4.1 17:33:42 10° S 17:38:50 59° ESE 17:43:58 10° NNE
SL-4 R/B 1.9 17:35:31 10° W 17:39:00 67° S 17:42:42 10° E
ADEOS Rocket 3.3 17:32:59 10° NNE 17:39:21 86° ESE 17:46:25 10° SSW
CZ-2D R/B 4.1 17:36:19 10° SE 17:39:36 29° ENE 17:42:55 10° N
Cosmos 1346 Rocket 3.9 17:36:42 10° N 17:40:01 24° ENE 17:43:18 10° ESE
NOAA 11 4.2 17:37:36 10° SSE 17:43:00 70° ENE 17:48:26 10° NNW
Cosmos 1340 3.0 17:40:07 10° N 17:43:45 43° ENE 17:47:22 10° SE
Okean-O 3.3 17:40:21 10° SE 17:44:16 32° ENE 17:48:14 10° N
Meteor 2-16 Rocket 4.4 17:39:04 10° N 17:45:11 71° ENE 17:51:16 10° SSE
USA 281 3.6 17:39:09 10° SSE 17:45:41 70° WSW 17:52:17 10° NNW
Cosmos 1486 Rocket 4.2 17:40:52 10° NNW 17:46:08 55° ENE 17:51:21 10° SE
Cosmos 1953 3.8 17:42:51 10° SW 17:46:35 39° WNW 17:50:21 10° N
Envisat 4.1 17:42:38 10° S 17:47:34 51° W 17:52:33 10° NNW
Cosmos 1745 Rocket 4.5 17:42:11 10° N 17:48:01 38° ENE 17:53:51 10° SE
Cosmos 2297 Rocket 2.2 17:45:22 10° NNW 17:51:05 83° ENE 17:56:46 10° SSE
USA 305 3.1 17:47:01 10° WNW 17:51:19 76° SSW 17:55:37 10° ESE
Cosmos 1689 Rocket 3.4 17:49:36 10° NE 17:51:47 19° E 17:53:57 10° SE
Cosmos 2369 Rocket 3.7 17:47:04 10° WSW 17:52:13 34° NW 17:57:24 10° NNE
Cosmos 1315 Rocket 4.5 17:50:13 10° ESE 17:52:22 14° E 17:54:02 12° ENE
In-Cosmos 22 Rocket 4.2 17:48:08 10° N 17:53:26 56° ENE 17:58:46 10° SSE
FALCON 9 DEB 4.3 17:50:43 10° SSW 17:53:29 27° SSE 17:55:34 14° E
CZ-4B R/B 1.4 17:51:32 10° NNE 17:54:44 52° E 17:57:49 10° S
Cosmos 1503 Rocket 4.4 17:51:07 10° NNW 17:56:04 42° NE 18:01:02 10° SE
Cosmos 1953 Rocket 3.6 17:52:59 10° NNW 17:57:26 88° W 18:01:53 10° S
USA 306 3.1 17:53:29 10° WNW 17:57:47 73° SSW 18:01:57 11° ESE
Cosmos 1244 Rocket 4.4 17:54:36 10° N 18:00:51 76° E 18:07:06 10° SSE
Aureole 3 3.2 17:58:51 10° SSE 18:01:38 33° E 18:04:23 10° NNE
NOSS 2-1 (E) 4.5 17:59:33 10° W 18:02:45 33° NNW 18:06:33 10° NE
Cosmos 2058 Rocket 3.3 18:02:06 10° S 18:06:26 50° E 18:10:49 10° NNE
Cosmos 1354 Rocket 4.3 18:03:14 10° NNW 18:08:18 45° NE 18:13:21 10° SE
CZ-2C R/B 3.5 18:05:06 10° SE 18:10:35 48° ENE 18:15:55 10° N
COSMOS 2455 4.5 18:06:50 10° NW 18:11:28 22° N 18:15:51 11° NE
CZ-4C R/B 3.4 18:05:46 10° NW 18:11:41 39° NNE 18:16:59 17° ENE
Cosmos 1455 3.3 18:12:57 10° SE 18:15:59 23° E 18:17:16 19° ENE
SJ 16-02 3.5 18:17:18 10° NNE 18:18:35 11° NE 18:18:55 11° NE
Cosmos 1076 Rocket 3.9 18:15:36 10° N 18:19:37 38° ENE 18:23:36 10° SE
Meteor 2-10 Rocket 3.9 18:16:49 10° SSE 18:21:37 37° E 18:26:17 10° NNE
Cosmos 1943 Rocket 4.2 18:18:28 10° WNW 18:22:28 20° NNW 18:26:27 10° NNE
Cosmos 2219 3.8 18:17:19 10° NW 18:23:00 61° WSW 18:28:40 10° SSE
H-2A R/B 3.6 18:20:56 10° N 18:24:46 35° WNW 18:28:32 10° SW
COSMO-SKYMED 1 2.6 18:20:40 10° NNE 18:24:59 59° E 18:29:16 10° S
SL-08 ROCKET BODY 4.4 18:24:15 10° N 18:30:22 76° ENE 18:36:32 10° SSE
Cosmos 2082 3.7 18:25:17 10° NNW 18:31:04 80° ENE 18:36:49 10° SE
Cosmos 44 3.1 18:27:06 10° SW 18:31:41 87° SE 18:35:30 17° NE
Ariane Rocket 4.1 18:30:46 23° ENE 18:31:44 24° NE 18:35:47 10° N
ATLAS 5 CENTAUR R/B 3.2 18:28:45 10° WNW 18:32:44 28° N 18:36:16 15° NE
Cosmos 2278 Rocket 4.4 18:33:17 10° NNW 18:35:54 13° N 18:38:31 10° NNE
H-2A R/B 2.2 18:31:48 10° SE 18:37:06 55° ENE 18:42:26 10° N
SJ-11-01 4.3 18:35:02 10° SE 18:39:34 54° ENE 18:44:10 10° N
Cosmos 1939 Rocket 3.6 18:36:21 10° S 18:40:14 55° W 18:44:05 10° NNW
ARGOS 3.4 18:36:01 13° SE 18:40:40 47° ENE 18:45:52 10° N
USA 307 3.6 18:36:53 10° WNW 18:41:02 50° SSW 18:43:35 21° SE
YAOGAN 1 2.4 18:37:55 10° SSE 18:42:14 79° ENE 18:46:36 10° NNW
S3M 4.0 18:36:43 10° S 18:42:41 57° E 18:48:44 10° NNE
Cosmos 1408 2.4 18:39:02 10° N 18:42:42 79° E 18:46:22 10° SSE
NOSS 3-4 (A) 3.8 18:37:13 10° NW 18:43:55 66° NE 18:48:36 24° ESE
NOSS 3-4 (C) 3.8 18:37:20 10° NW 18:44:01 66° NE 18:48:40 24° ESE
Cosmos 1656 3.6 18:39:25 10° SSW 18:44:57 67° ESE 18:50:25 11° NE
GEOS 3 Rocket 3.6 18:41:32 19° SE 18:45:27 83° NE 18:50:54 10° NW
Okean O Rocket 4.4 18:42:10 10° SW 18:45:31 21° W 18:48:52 10° NW
USA 308 3.7 18:41:48 10° WNW 18:45:56 48° SSW 18:48:19 22° SE
SeaSat 1 2.6 18:43:27 27° ESE 18:45:56 53° NE 18:50:46 10° NNW
Cosmos 1844 Rocket 4.2 18:43:01 10° NNW 18:47:04 19° NNE 18:48:28 18° NE
Cosmos 1812 Rocket 3.9 18:44:51 10° SSE 18:48:59 41° E 18:53:05 10° NNE
Cosmos 2369 4.1 18:43:58 10° S 18:49:11 38° ESE 18:51:18 28° ENE
Cosmos 1892 3.2 18:45:23 10° NNW 18:49:14 61° W 18:53:03 10° S
Meteor 2-8 Rocket 4.5 18:43:35 10° SSW 18:49:43 85° W 18:55:56 10° N
Helios 1A Rocket 3.5 18:48:42 10° S 18:52:46 58° WSW 18:56:50 10° NNW
Cosmos 1417 Rocket 4.4 18:47:02 10° S 18:53:18 81° E 18:59:42 10° NNE
Cosmos 2227 Rocket 3.2 18:49:56 10° NW 18:55:19 46° WSW 19:00:41 10° S
Cosmos 1400 Rocket 3.4 18:51:49 10° SSW 18:55:52 58° WNW 18:59:54 10° N
NOSS 3-3 (A) 4.2 18:50:59 10° SSW 18:56:32 44° ESE 18:59:03 31° ENE
NOSS 3-3 (C) 4.3 18:51:06 10° SSW 18:56:39 44° ESE 18:59:07 31° ENE
MOS 1 Rocket 3.5 18:52:09 10° NNE 18:56:40 47° E 19:01:24 10° S
USA 215 3.3 18:54:35 29° E 18:58:08 73° NNE 19:04:40 10° WNW
Cosmos 2263 Rocket 2.5 18:53:57 10° NNW 18:59:29 48° NE 19:01:09 37° E
CSL-04 Rocket 3.6 18:54:49 10° SSE 19:00:22 81° ENE 19:05:54 10° NNW
HJ-1C 3.3 19:02:02 68° NE 19:02:02 68° NE 19:05:11 10° N
FALCON 9 DEB 3.3 18:59:05 10° WSW 19:01:58 54° SSW 19:01:58 54° SSW
Cosmos 2151 3.0 19:01:03 10° N 19:05:02 52° ENE 19:05:02 52° ENE
FALCON 9 DEB 3.4 19:02:07 10° WSW 19:04:51 53° SSW 19:04:51 53° SSW
ATLAS 2AS CENTAUR R/B 2.9 18:58:23 10° NW 19:06:05 69° NE 19:09:28 34° ESE
CZ-4 R/B 2.1 19:02:39 10° S 19:06:25 51° W 19:10:12 10° NNW
Aureole 3 Rocket 4.2 19:02:20 10° SSW 19:06:39 56° WNW 19:12:45 10° N
BREEZE-M R/B 4.1 19:03:21 10° W 19:07:23 54° S 19:10:34 30° SE
Cosmos 2058 3.5 19:03:27 10° NNW 19:07:29 56° W 19:11:30 10° S
Cosmos 1825 2.1 19:03:44 10° NNW 19:07:32 84° W 19:09:13 32° S
PSLV R/B 4.3 19:04:14 10° N 19:08:26 67° WNW 19:12:32 10° SSW
Lacrosse 5 2.0 19:05:08 10° WNW 19:10:11 62° N 19:11:26 46° ENE
ERS-2 4.5 19:07:42 10° N 19:10:40 24° WNW 19:13:39 10° WSW
ERBS 2.9 19:07:24 10° WNW 19:10:19 48° NNW 19:10:19 48° NNW
Meteor 2-15 Rocket 4.3 19:05:12 10° S 19:11:21 79° E 19:17:30 10° NNE
Cosmos 1553 Rocket 4.2 19:05:21 10° SSW 19:11:41 73° WNW 19:17:56 10° N
SKYMED 2 4.4 19:08:49 10° N 19:13:04 52° WNW 19:17:16 10° SW
Cosmos 1777 Rocket 4.0 19:08:33 10° NNW 19:13:45 62° ENE 19:14:48 50° ESE
Cosmos 1697 Rocket 2.6 19:08:35 10° SSW 19:14:07 63° ESE 19:16:32 34° NE
FALCON 9 DEB 3.8 19:10:58 10° W 19:14:09 48° SSW 19:14:09 48° SSW
Cosmos 1346 Rocket 4.1 19:12:46 10° NNW 19:16:33 41° W 19:20:18 10° SSW
SL-4 R/B 2.4 19:14:55 10° W 19:18:22 44° SSW 19:18:22 44° SSW
FALCON 9 DEB 4.0 19:15:30 10° WSW 19:17:50 42° SW 19:17:50 42° SW
Meteor 2-1 Rocket 4.1 19:13:17 10° S 19:18:47 89° ESE 19:24:23 10° NNE
Okean-O 4.0 19:16:32 10° SSW 19:20:41 39° W 19:24:53 10° NNW
Cosmos 220 Rocket 3.9 19:16:24 10° SSW 19:20:47 88° ESE 19:21:50 52° NNE
Cosmos 1689 Rocket 4.2 19:21:17 16° NNW 19:22:59 27° WNW 19:25:30 10° SW
CZ-4B R/B 4.5 19:24:43 10° NNW 19:26:37 15° WNW 19:28:31 10° W
Cosmos 1315 Rocket 3.0 19:24:24 10° SSW 19:28:22 70° WNW 19:29:52 36° N
USA 305 4.4 19:27:16 10° W 19:30:57 28° SW 19:31:55 25° SSW
SL-08 RB Rocket 3.5 19:32:29 78° NNE 19:32:29 78° NNE 19:36:48 10° NNW
Cosmos 1980 Rocket 3.0 19:31:51 10° S 19:35:17 35° SSE 19:35:17 35° SSE
BREEZE-M TANK 4.3 19:34:50 10° W 19:39:02 22° SSW 19:39:31 22° SSW
MetOp-A 4.1 19:42:34 67° NE 19:42:34 67° NE 19:47:40 10° NNW
Cosmos 2227 4.0 19:45:01 10° NNW 19:50:42 87° WSW 19:51:06 78° SSE
Cosmos 1455 3.6 19:47:51 10° SW 19:51:24 37° WNW 19:52:22 32° NW
IRS-1A Rocket 4.1 19:53:35 82° SSE 19:53:50 88° ENE 19:59:24 10° NNW
Cosmos 2360 4.1 19:51:35 10° SSW 19:57:19 88° WNW 19:57:37 81° NNE
SJ 16-02 3.2 19:54:05 10° NNW 19:55:54 23° N 19:55:54 23° N
Cosmos 2184 Rocket 4.0 19:52:11 10° N 19:58:07 67° NE 19:58:07 67° NE
MOS 1 4.1 19:59:05 88° ENE 19:59:05 88° ENE 20:04:48 10° NNW
COSMOS 2455 3.9 19:53:50 10° NW 19:58:59 32° NNE 19:58:59 32° NNE
CZ-4C R/B 2.7 19:54:26 10° NW 20:01:14 74° NE 20:02:10 66° E
Cosmos 1943 Rocket 4.5 20:06:13 10° NNW 20:08:32 12° N 20:10:06 11° NNE
Cosmos 2278 4.5 20:03:15 10° SSW 20:06:51 41° SSW 20:06:51 41° SSW
Meteor 2-3 Rocket 3.8 20:03:24 10° NNW 20:09:08 73° W 20:09:26 71° SW
Ariane Rocket 3.4 20:10:58 62° NW 20:10:58 62° NW 20:15:24 10° NNW
Meteor 2-17 Rocket 4.4 20:05:16 10° NNW 20:11:21 77° W 20:11:47 73° SW
H-2A R/B 3.9 20:12:03 10° SSW 20:16:48 30° W 20:21:36 10° NNW
Cosmos 2074 Rocket 4.0 20:11:15 10° N 20:16:54 75° NNW 20:16:54 75° NNW
ATLAS 5 CENTAUR R/B 3.4 20:14:17 10° NW 20:17:47 29° N 20:17:47 29° N
Resurs 01 Rocket 4.1 20:25:38 14° N 20:25:38 14° N 20:26:21 10° N
Cosmos 2278 Rocket 4.1 20:18:09 10° NNW 20:21:08 19° N 20:21:08 19° N
SeaSat 1 3.8 20:23:15 33° WSW 20:23:40 34° WSW 20:28:09 10° NW
Cosmos 1844 Rocket 3.9 20:26:41 10° NNW 20:30:08 35° N 20:30:08 35° N
Cosmos 2369 4.4 20:27:42 10° SW 20:33:17 51° NW 20:33:18 51° NW
NOSS 3-4 (C) 4.5 20:28:21 10° NW 20:34:55 47° SW 20:36:08 43° SSW
USA 215 3.5 20:41:56 62° WSW 20:41:56 62° WSW 20:47:48 10° WNW
Cosmos 2263 Rocket 3.3 20:38:05 10° NW 20:42:52 41° W 20:42:52 41° W
NOSS 3-3 (A) 4.5 20:41:13 10° WSW 20:46:32 58° WNW 20:46:32 58° WNW
NOSS 3-3 (C) 4.5 20:41:20 10° WSW 20:46:35 57° WNW 20:46:35 57° WNW
Lacrosse 5 3.7 20:48:15 10° WNW 20:50:37 28° WNW 20:50:37 28° WNW
ATLAS 2AS CENTAUR R/B 3.6 20:49:49 10° NW 20:56:48 43° WSW 20:56:55 43° WSW
Cosmos 1697 Rocket 4.1 20:53:21 10° WSW 20:58:19 34° NW 20:58:19 34° NW
CZ-4C R/B 4.1 21:43:06 10° NW 21:47:23 34° W 21:47:23 34° W
